Weather History for Brookings, SD

Change the Weather History Date:

Tuesday, February 19, 2013

  Actual Average Record
Temperature  
Mean Temperature -2 °F -  
Max Temperature 6 °F 28 °F 44 °F (2012)
Min Temperature -9 °F 13 °F -11 °F (2008)
Degree Days  
Heating Degree Days 66    
Moisture  
Dew Point -9 °F    
Average Humidity 79    
Maximum Humidity 100    
Minimum Humidity 65    
Precipitation  
Precipitation 0.00 in - - ()
Sea Level Pressure  
Sea Level Pressure 30.23 in    
Wind  
Wind Speed 19 mph (NW)    
Max Wind Speed 29 mph    
Max Gust Speed 34 mph    
Visibility 10 miles    
Events      
Averages and records for this station are not official NWS values.
T = Trace of Precipitation, MM = Missing Value Source: NWS Daily Summary

Daily Weather History Graph

Daily Weather History Graph

Search for Another Location

Airport:

Trip Planner

Search our weather history database for the weather conditions in past years. The results will help you decide how hot, cold, wet, or windy it might be!

Date:

Astronomy

Feb. 19, 2013 Rise Set
Actual Time 7:20 AM CST 6:02 PM CST
Civil Twilight 6:50 AM CST 6:31 PM CST
Nautical Twilight 6:17 AM CST 7:05 PM CST
Astronomical Twilight 5:43 AM CST 7:39 PM CST
Moon 12:27 PM CST 3:00 AM CST
Length of Visible Light 11h 41m
Length of Day
10h 41m
Waxing Gibbous, 67% of the Moon is Illuminated
Feb 19
Waxing Gibbous
Feb 25
Full
Mar 4
Last Quarter
Mar 11
New
Mar 19
First Quarter

Hourly Weather History & Observations

Time (CST) Temp. Windchill Dew Point Humidity Pressure Visibility Wind Dir Wind Speed Gust Speed Precip Events Conditions
12:15 AM 6.8 °F -16.2 °F 1.4 °F 79% 30.02 in 8.0 mi WNW 28.8 mph 33.4 mph N/A   Overcast
12:35 AM 6.8 °F -13.8 °F -0.4 °F 72% 30.03 in 10.0 mi NW 21.9 mph 31.1 mph N/A   Overcast
12:55 AM 6.8 °F -16.2 °F -0.4 °F 72% 30.03 in 10.0 mi WNW 28.8 mph 34.5 mph N/A   Overcast
1:15 AM 5.0 °F -17.1 °F -0.4 °F 78% 30.05 in 10.0 mi WNW 24.2 mph 31.1 mph N/A   Overcast
1:35 AM 3.2 °F -19.0 °F 1.4 °F 92% 30.05 in 5.0 mi WNW 23.0 mph 31.1 mph N/A   Overcast
1:55 AM 3.2 °F -19.5 °F -2.2 °F 78% 30.06 in 9.0 mi NW 24.2 mph 31.1 mph N/A   Overcast
2:15 AM 3.2 °F -19.0 °F -2.2 °F 78% 30.07 in 10.0 mi NW 23.0 mph 29.9 mph N/A   Overcast
2:35 AM 3.2 °F -17.6 °F -0.4 °F 85% 30.07 in 7.0 mi WNW 19.6 mph - N/A   Overcast
2:55 AM 3.2 °F -18.1 °F -5.8 °F 66% 30.08 in 10.0 mi WNW 20.7 mph 33.4 mph N/A   Overcast
3:15 AM 1.4 °F -22.3 °F -2.2 °F 85% 30.08 in 5.0 mi WNW 25.3 mph 33.4 mph N/A   Overcast
3:35 AM 1.4 °F -23.5 °F -4.0 °F 78% 30.08 in 10.0 mi WNW 28.8 mph 34.5 mph N/A   Overcast
3:55 AM 1.4 °F -21.9 °F -5.8 °F 72% 30.09 in 10.0 mi WNW 24.2 mph 29.9 mph N/A   Overcast
4:15 AM -0.4 °F -22.8 °F -4.0 °F 85% 30.10 in 10.0 mi WNW 20.7 mph 28.8 mph N/A   Overcast
4:35 AM -2.2 °F -25.2 °F -7.6 °F 78% 30.11 in 9.0 mi NW 20.7 mph 28.8 mph N/A   Overcast
4:55 AM -2.2 °F -24.7 °F -9.4 °F 71% 30.13 in 10.0 mi NW 19.6 mph 27.6 mph N/A   Overcast
5:15 AM -5.8 °F -28.2 °F -11.2 °F 77% 30.14 in 9.0 mi NW 17.3 mph 21.9 mph N/A   Mostly Cloudy
5:55 AM -5.8 °F -28.2 °F -9.4 °F 84% 30.16 in 10.0 mi WNW 17.3 mph 29.9 mph N/A   Clear
6:15 AM -7.6 °F -29.8 °F -14.8 °F 71% 30.17 in 10.0 mi NW 16.1 mph - N/A   Mostly Cloudy
6:35 AM -7.6 °F -27.5 °F -13.0 °F 77% 30.18 in 10.0 mi WNW 12.7 mph - N/A   Mostly Cloudy
6:55 AM -7.6 °F -29.1 °F -11.2 °F 84% 30.18 in 10.0 mi WNW 15.0 mph - N/A   Scattered Clouds
7:15 AM -7.6 °F -30.5 °F -9.4 °F 92% 30.18 in 10.0 mi NW 17.3 mph 23.0 mph N/A   Clear
7:35 AM -9.4 °F -28.9 °F -16.6 °F 71% 30.20 in 10.0 mi NW 11.5 mph - N/A   Scattered Clouds
7:55 AM -9.4 °F -34.1 °F -11.2 °F 92% 30.20 in 10.0 mi NW 19.6 mph - N/A   Mostly Cloudy
8:15 AM -9.4 °F -32.1 °F -13.0 °F 84% 30.21 in 9.0 mi NW 16.1 mph 23.0 mph N/A   Overcast
8:35 AM -9.4 °F -32.1 °F -16.6 °F 71% 30.22 in 10.0 mi NW 16.1 mph - N/A   Mostly Cloudy
8:55 AM -9.4 °F -33.5 °F - N/A% 30.23 in 10.0 mi WNW 18.4 mph - N/A   Mostly Cloudy
9:35 AM -7.6 °F -31.7 °F -14.8 °F 71% 30.24 in 10.0 mi NW 19.6 mph - N/A   Partly Cloudy
9:55 AM -7.6 °F -31.1 °F -11.2 °F 84% 30.24 in 10.0 mi NW 18.4 mph - N/A   Clear
10:15 AM -7.6 °F -30.5 °F -14.8 °F 71% 30.27 in 10.0 mi WNW 17.3 mph 21.9 mph N/A   Clear
10:35 AM -7.6 °F -30.5 °F -13.0 °F 77% 30.26 in 10.0 mi NW 17.3 mph 21.9 mph N/A   Clear
10:55 AM -7.6 °F -30.5 °F -11.2 °F 84% 30.28 in 10.0 mi WNW 17.3 mph - N/A   Clear
11:15 AM -7.6 °F -31.1 °F -11.2 °F 84% 30.28 in 10.0 mi WNW 18.4 mph - N/A   Clear
11:35 AM -5.8 °F -27.5 °F - N/A% 30.28 in 10.0 mi WNW 16.1 mph - N/A   Clear
12:15 PM -5.8 °F -28.2 °F -9.4 °F 84% 30.30 in 10.0 mi WNW 17.3 mph - N/A   Clear
12:35 PM -4.0 °F -24.5 °F -11.2 °F 71% 30.29 in 10.0 mi NW 15.0 mph - N/A   Clear
12:55 PM -2.2 °F -22.9 °F -7.6 °F 78% 30.29 in 10.0 mi WNW 16.1 mph - N/A   Clear
1:15 PM -2.2 °F -23.5 °F -9.4 °F 71% 30.28 in 10.0 mi WNW 17.3 mph - N/A   Clear
1:35 PM -2.2 °F -24.7 °F -7.6 °F 78% 30.29 in 10.0 mi WNW 19.6 mph - N/A   Clear
1:55 PM -0.4 °F -21.7 °F -7.6 °F 72% 30.29 in 10.0 mi WNW 18.4 mph - N/A   Clear
2:15 PM -0.4 °F -22.3 °F -7.6 °F 72% 30.28 in 10.0 mi WNW 19.6 mph - N/A   Clear
2:35 PM -0.4 °F -22.3 °F -5.8 °F 78% 30.29 in 10.0 mi WNW 19.6 mph - N/A   Clear
2:55 PM -0.4 °F -21.2 °F -5.8 °F 78% 30.30 in 10.0 mi WNW 17.3 mph - N/A   Clear
3:15 PM -0.4 °F -21.7 °F -5.8 °F 78% 30.29 in 10.0 mi WNW 18.4 mph - N/A   Clear
3:35 PM -0.4 °F -21.7 °F -5.8 °F 78% 30.30 in 10.0 mi WNW 18.4 mph - N/A   Clear
3:55 PM -0.4 °F -21.7 °F -5.8 °F 78% 30.30 in 10.0 mi WNW 18.4 mph - N/A   Clear
4:15 PM -0.4 °F -19.2 °F -5.8 °F 78% 30.30 in 10.0 mi NW 13.8 mph - N/A   Clear
4:35 PM 1.4 °F -17.6 °F -5.8 °F 72% 30.30 in 10.0 mi WNW 15.0 mph - N/A   Clear
4:55 PM -0.4 °F -17.6 °F -5.8 °F 78% 30.30 in 10.0 mi NW 11.5 mph - N/A   Clear
5:15 PM -0.4 °F -18.4 °F -7.6 °F 72% 30.31 in 10.0 mi NW 12.7 mph - N/A   Clear
6:35 PM -2.2 °F -16.8 °F -9.4 °F 71% 30.31 in 10.0 mi NNW 8.1 mph - N/A   Clear
6:55 PM -2.2 °F -15.6 °F -9.4 °F 71% 30.31 in 10.0 mi WNW 6.9 mph - N/A   Clear
7:15 PM -4.0 °F -20.2 °F -7.6 °F 85% 30.31 in 10.0 mi NNW 9.2 mph - N/A   Clear
7:35 PM -4.0 °F -20.2 °F -9.4 °F 78% 30.32 in 10.0 mi NW 9.2 mph - N/A   Clear
7:55 PM -5.8 °F -18.4 °F -9.4 °F 84% 30.32 in 10.0 mi NW 5.8 mph - N/A   Clear
8:15 PM -5.8 °F -21.2 °F - N/A% 30.32 in 10.0 mi NW 8.1 mph - N/A   Clear
8:35 PM -5.8 °F -16.7 °F -9.4 °F 84% 30.33 in 10.0 mi NW 4.6 mph - N/A   Clear
8:55 PM -7.6 °F -20.6 °F -11.2 °F 84% 30.33 in 10.0 mi NW 5.8 mph - N/A   Clear
9:15 PM -7.6 °F -22.1 °F -11.2 °F 84% 30.34 in 10.0 mi NW 6.9 mph - N/A   Clear
9:35 PM -7.6 °F -16.5 °F -11.2 °F 84% 30.35 in 10.0 mi NW 3.5 mph - N/A   Clear
9:55 PM -7.6 °F -18.8 °F -14.8 °F 71% 30.35 in 10.0 mi NW 4.6 mph - N/A   Clear
10:15 PM -7.6 °F -20.6 °F -9.4 °F 92% 30.34 in 10.0 mi North 5.8 mph - N/A   Clear
10:35 PM -7.6 °F -18.8 °F -13.0 °F 77% 30.35 in 10.0 mi NW 4.6 mph - N/A   Clear
10:55 PM -9.4 °F -22.7 °F -16.6 °F 71% 30.36 in 10.0 mi WNW 5.8 mph - N/A   Clear
11:15 PM -9.4 °F -18.6 °F -9.4 °F 100% 30.37 in 10.0 mi NW 3.5 mph - N/A   Clear
11:35 PM -9.4 °F - -18.4 °F 65% 30.37 in 10.0 mi Calm Calm - N/A   Clear
11:55 PM -9.4 °F -18.6 °F -9.4 °F 100% 30.37 in 10.0 mi NNW 3.5 mph - N/A   Clear